Home   Weather   Gurgaon   Past weeks

Flag for India Past Weather in Gurgaon, Haryana, India — Yesterday and Last 2 Weeks

Now
93 °F

Haze.


Feels Like: 103 °F
Forecast: 82 / 96 °F
Wind: 3 mph from Southeast

Location: New Delhi Palam Airport

Current Time: Sep 30, 2016 at 2:01:20 PM

Latest Report: Sep 30, 2016 at 12:30 PM


Visibility: 2 mi

Pressure: 29.74 "Hg

Humidity: 53%

Dew Point: 73 °F

Location of GurgaonLocation

Past Weather in Gurgaon — Graph

°F

Gurgaon Temperature Yesterday

Maximum temperature yesterday: 95 °F (at 12:30 PM)
Minimum temperature yesterday: 81 °F (at 4:30 AM)
Average temperature yesterday: 88 °F

High & Low Weather Summary for the Past Weeks

 TemperatureHumidityPressure
High99 °F (Sep 20, 3:30 PM)89% (Sep 18, 6:30 AM)29.89 "Hg (Sep 18, 6:30 AM)
Low79 °F (Sep 18, 6:30 AM)34% (Sep 19, 2:00 PM)29.59 "Hg (Sep 20, 3:30 PM)
Average88 °F64%29.72 "Hg
* Reported Sep 15 12:30 PM — Sep 30 12:30 PM, Gurgaon, Weather by CustomWeather, © 2016

Note: Actual official high and low records may vary slightly from our data, if they occured in-between our weather recording intervals... More about our weather records

Advertising

Gurgaon Weather History for the Previous 24 Hours

Scroll right to see more
 ConditionsComfort  
Time TempWeatherWind HumidityBarometerVisibility
12:30 PM
Fri, Sep 30
93 °FHaze.3 mph53%29.74 "Hg2 mi
12:00 PM91 °FHaze.3 mph52%29.74 "Hg2 mi
11:30 AM91 °FHaze.5 mph56%29.77 "Hg2 mi
11:00 AM91 °FHaze.No wind59%29.77 "Hg2 mi
10:30 AM90 °FHaze.No wind63%29.77 "Hg2 mi
10:00 AM90 °FHaze.No wind63%29.77 "Hg2 mi
9:30 AM88 °FHaze.No wind66%29.77 "Hg2 mi
9:00 AM88 °FFog.6 mph66%29.77 "Hg2 mi
8:30 AM86 °FFog.5 mph70%29.77 "Hg2 mi
8:00 AM84 °FFog.3 mph79%29.77 "Hg2 mi
7:30 AM82 °FFog.5 mph79%29.77 "Hg2 mi
7:00 AM81 °FFog.5 mph84%29.77 "Hg2 mi
6:30 AM81 °FFog.5 mph84%29.74 "Hg2 mi
6:00 AM82 °FFog.5 mph79%29.74 "Hg2 mi
5:30 AM82 °FFog.5 mph79%29.74 "Hg2 mi
5:00 AM82 °FFog.5 mph79%29.74 "Hg2 mi
4:30 AM82 °FFog.3 mph79%29.74 "Hg2 mi
4:00 AM82 °FFog.3 mph79%29.74 "Hg2 mi
3:30 AM82 °FFog.3 mph79%29.74 "Hg2 mi
3:00 AM82 °FFog.3 mph79%29.74 "Hg2 mi
2:30 AM82 °FFog.3 mph79%29.74 "Hg2 mi
2:00 AM84 °FFog.3 mph74%29.74 "Hg2 mi
1:30 AM84 °FHaze.3 mph74%29.74 "Hg2 mi
1:00 AM84 °FFog.3 mph74%29.74 "Hg2 mi
12:30 AM84 °FFog.5 mph74%29.74 "Hg2 mi
12:00 AM84 °FHaze.5 mph74%29.74 "Hg2 mi
11:30 PM
Thu, Sep 29
84 °FHaze.3 mph74%29.74 "Hg2 mi
11:00 PM84 °FHaze.3 mph74%29.74 "Hg2 mi
10:30 PM86 °FHaze.5 mph70%29.74 "Hg2 mi
10:00 PM86 °FHaze.3 mph70%29.74 "Hg2 mi
9:30 PM86 °FHaze.5 mph70%29.74 "Hg2 mi
9:00 PM88 °FHaze.5 mph66%29.71 "Hg2 mi
8:30 PM88 °FHaze.6 mph66%29.71 "Hg2 mi
7:30 PM90 °FHaze.7 mph59%29.68 "Hg2 mi
6:30 PM91 °FHaze.3 mph52%29.65 "Hg2 mi
6:00 PM91 °FScattered clouds.3 mph52%29.65 "Hg2 mi
5:30 PM91 °FScattered clouds.5 mph59%29.68 "Hg2 mi
5:00 PM93 °FScattered clouds.5 mph56%29.68 "Hg2 mi
4:30 PM93 °FScattered clouds.6 mph49%29.68 "Hg2 mi
4:00 PM93 °FScattered clouds.5 mph49%29.68 "Hg2 mi
3:30 PM93 °FScattered clouds.6 mph53%29.68 "Hg2 mi
3:00 PM93 °FScattered clouds.5 mph49%29.68 "Hg2 mi
2:30 PM93 °FScattered clouds.5 mph49%29.68 "Hg2 mi
2:00 PM93 °FScattered clouds.7 mph53%29.68 "Hg2 mi
Weather by CustomWeather, © 2016

See weather overviewHow to use our weather pages